Time,TemperatureF,DewpointF,PressureIn,WindDirection,WindDirectionDegrees,WindSpeedMPH,WindSpeedGustMPH,Humidity,HourlyPrecipIn,Conditions,Clouds,dailyrainin,SoftwareType,DateUTC
2013-04-19 00:00:00,50.0,43.1,29.78,North,360,1.0,16.0,77,0.00,,,0.00,Weather View 32 v70,2013-04-19 04:00:00,
2013-04-19 00:01:00,50.0,43.1,29.78,West,270,4.0,16.0,77,0.00,,,0.00,Weather View 32 v70,2013-04-19 04:01:00,
2013-04-19 00:06:00,50.0,43.1,29.78,SE,135,3.0,16.0,77,0.00,,,0.00,Weather View 32 v70,2013-04-19 04:06:00,
2013-04-19 00:11:00,50.0,43.4,29.78,West,270,6.0,12.0,78,0.00,,,0.00,Weather View 32 v70,2013-04-19 04:11:00,
2013-04-19 00:16:00,50.0,43.4,29.78,ENE,67,1.0,12.0,78,0.00,,,0.00,Weather View 32 v70,2013-04-19 04:16:00,
2013-04-19 00:21:00,50.0,43.4,29.78,NE,45,0.0,12.0,78,0.00,,,0.00,Weather View 32 v70,2013-04-19 04:21:00,
2013-04-19 00:26:00,50.0,43.4,29.78,West,270,2.0,12.0,78,0.00,,,0.00,Weather View 32 v70,2013-04-19 04:26:00,
2013-04-19 00:31:00,50.0,43.7,29.77,East,90,2.0,10.0,79,0.00,,,0.00,Weather View 32 v70,2013-04-19 04:31:00,
2013-04-19 00:36:00,50.0,43.7,29.77,East,90,0.0,10.0,79,0.00,,,0.00,Weather View 32 v70,2013-04-19 04:36:00,
2013-04-19 00:41:00,50.0,44.1,29.77,NW,315,4.0,10.0,80,0.00,,,0.00,Weather View 32 v70,2013-04-19 04:41:00,
2013-04-19 00:46:00,50.0,44.1,29.77,East,90,3.0,10.0,80,0.00,,,0.00,Weather View 32 v70,2013-04-19 04:46:00,
2013-04-19 00:51:00,50.0,44.1,29.76,SE,135,2.0,10.0,80,0.00,,,0.00,Weather View 32 v70,2013-04-19 04:51:00,
2013-04-19 00:56:00,50.0,44.1,29.76,South,180,2.0,10.0,80,0.00,,,0.00,Weather View 32 v70,2013-04-19 04:56:00,
2013-04-19 01:01:00,50.0,44.4,29.75,SE,135,0.0,9.0,81,0.00,,,0.00,Weather View 32 v70,2013-04-19 05:01:00,
2013-04-19 01:06:00,50.0,44.4,29.75,SE,135,3.0,9.0,81,0.00,,,0.00,Weather View 32 v70,2013-04-19 05:06:00,
2013-04-19 01:11:00,50.0,44.4,29.75,SE,135,4.0,8.0,81,0.00,,,0.00,Weather View 32 v70,2013-04-19 05:11:00,
2013-04-19 01:16:00,50.0,44.7,29.75,NW,315,0.0,7.0,82,0.00,,,0.00,Weather View 32 v70,2013-04-19 05:16:00,
2013-04-19 01:21:00,50.0,44.7,29.74,SE,135,0.0,7.0,82,0.00,,,0.00,Weather View 32 v70,2013-04-19 05:21:00,
2013-04-19 01:26:00,50.0,45.0,29.74,NW,315,7.0,7.0,83,0.00,,,0.00,Weather View 32 v70,2013-04-19 05:26:00,
2013-04-19 01:31:00,50.0,45.0,29.73,SE,135,5.0,7.0,83,0.00,,,0.00,Weather View 32 v70,2013-04-19 05:31:00,
2013-04-19 01:36:00,50.0,45.3,29.73,NW,315,2.0,7.0,84,0.00,,,0.00,Weather View 32 v70,2013-04-19 05:36:00,
2013-04-19 01:41:00,50.0,45.3,29.73,NW,315,7.0,7.0,84,0.00,,,0.00,Weather View 32 v70,2013-04-19 05:41:00,
2013-04-19 01:46:00,50.0,45.7,29.73,East,90,3.0,10.0,85,0.00,,,0.00,Weather View 32 v70,2013-04-19 05:46:00,
2013-04-19 01:51:00,50.0,45.7,29.71,North,360,3.0,10.0,85,0.00,,,0.00,Weather View 32 v70,2013-04-19 05:51:00,
2013-04-19 01:56:00,50.0,46.0,29.71,SE,135,4.0,10.0,86,0.00,,,0.00,Weather View 32 v70,2013-04-19 05:56:00,
2013-04-19 02:01:00,51.0,47.3,29.71,SE,135,0.0,10.0,87,0.00,,,0.00,Weather View 32 v70,2013-04-19 06:01:00,
2013-04-19 02:06:00,51.0,47.6,29.71,North,360,6.0,10.0,88,0.00,,,0.00,Weather View 32 v70,2013-04-19 06:06:00,
2013-04-19 02:11:00,51.0,47.6,29.69,East,90,5.0,10.0,88,0.00,,,0.00,Weather View 32 v70,2013-04-19 06:11:00,
2013-04-19 02:16:00,51.0,47.9,29.69,NW,315,7.0,10.0,89,0.00,,,0.00,Weather View 32 v70,2013-04-19 06:16:00,
2013-04-19 02:21:00,51.0,48.2,29.69,NW,315,3.0,10.0,90,0.00,,,0.00,Weather View 32 v70,2013-04-19 06:21:00,
2013-04-19 02:26:00,51.0,48.2,29.69,East,90,4.0,13.0,90,0.00,,,0.00,Weather View 32 v70,2013-04-19 06:26:00,
2013-04-19 02:31:00,51.0,48.5,29.68,East,90,4.0,13.0,91,0.00,,,0.00,Weather View 32 v70,2013-04-19 06:31:00,
2013-04-19 02:36:00,51.0,48.5,29.68,East,90,5.0,13.0,91,0.00,,,0.00,Weather View 32 v70,2013-04-19 06:36:00,
2013-04-19 02:41:00,51.0,48.5,29.68,NW,315,6.0,13.0,91,0.00,,,0.00,Weather View 32 v70,2013-04-19 06:41:00,
2013-04-19 02:46:00,51.0,48.5,29.68,SE,135,2.0,13.0,91,0.00,,,0.00,Weather View 32 v70,2013-04-19 06:46:00,
2013-04-19 02:51:00,51.0,48.5,29.68,North,360,5.0,13.0,91,0.00,,,0.00,Weather View 32 v70,2013-04-19 06:51:00,
2013-04-19 02:56:00,51.0,49.0,29.68,East,90,2.0,13.0,93,0.00,,,0.00,Weather View 32 v70,2013-04-19 06:56:00,
2013-04-19 03:01:00,51.0,49.0,29.68,NE,45,4.0,13.0,93,0.00,,,0.00,Weather View 32 v70,2013-04-19 07:01:00,
2013-04-19 03:06:00,51.0,49.0,29.68,NW,315,2.0,13.0,93,0.00,,,0.00,Weather View 32 v70,2013-04-19 07:06:00,
2013-04-19 03:11:00,51.0,49.3,29.68,SE,135,2.0,13.0,94,0.00,,,0.00,Weather View 32 v70,2013-04-19 07:11:00,
2013-04-19 03:16:00,51.0,49.3,29.68,West,270,5.0,13.0,94,0.00,,,0.00,Weather View 32 v70,2013-04-19 07:16:00,
2013-04-19 03:21:00,51.0,49.3,29.68,West,270,7.0,13.0,94,0.00,,,0.00,Weather View 32 v70,2013-04-19 07:21:00,
2013-04-19 03:26:00,51.0,49.3,29.68,West,270,5.0,10.0,94,0.00,,,0.00,Weather View 32 v70,2013-04-19 07:26:00,
2013-04-19 03:31:00,51.0,49.6,29.68,WNW,292,6.0,10.0,95,0.00,,,0.00,Weather View 32 v70,2013-04-19 07:31:00,
2013-04-19 03:36:00,51.0,49.6,29.68,West,270,5.0,10.0,95,0.00,,,0.00,Weather View 32 v70,2013-04-19 07:36:00,
2013-04-19 03:41:00,51.0,49.9,29.67,SE,135,4.0,10.0,96,0.00,,,0.00,Weather View 32 v70,2013-04-19 07:41:00,
2013-04-19 03:46:00,51.0,49.9,29.67,West,270,4.0,10.0,96,0.00,,,0.00,Weather View 32 v70,2013-04-19 07:46:00,
2013-04-19 03:51:00,51.0,49.9,29.67,West,270,0.0,10.0,96,0.00,,,0.00,Weather View 32 v70,2013-04-19 07:51:00,
2013-04-19 03:56:00,51.0,49.9,29.67,WSW,247,4.0,10.0,96,0.00,,,0.00,Weather View 32 v70,2013-04-19 07:56:00,
2013-04-19 04:01:00,51.0,50.2,29.66,WNW,292,4.0,10.0,97,0.00,,,0.00,Weather View 32 v70,2013-04-19 08:01:00,
2013-04-19 04:06:00,51.0,50.2,29.66,West,270,3.0,10.0,97,0.00,,,0.00,Weather View 32 v70,2013-04-19 08:06:00,
2013-04-19 04:11:00,51.0,50.2,29.66,West,270,3.0,10.0,97,0.00,,,0.00,Weather View 32 v70,2013-04-19 08:11:00,
2013-04-19 04:16:00,51.0,50.2,29.66,West,270,5.0,9.0,97,0.00,,,0.00,Weather View 32 v70,2013-04-19 08:16:00,
2013-04-19 04:21:00,51.0,50.2,29.67,West,270,0.0,9.0,97,0.00,,,0.00,Weather View 32 v70,2013-04-19 08:21:00,
2013-04-19 04:26:00,51.0,50.2,29.67,West,270,3.0,9.0,97,0.00,,,0.00,Weather View 32 v70,2013-04-19 08:26:00,
2013-04-19 04:31:00,51.0,50.2,29.67,West,270,4.0,9.0,97,0.00,,,0.00,Weather View 32 v70,2013-04-19 08:31:00,
2013-04-19 04:36:00,51.0,50.2,29.67,West,270,2.0,9.0,97,0.00,,,0.00,Weather View 32 v70,2013-04-19 08:36:00,
2013-04-19 04:41:00,51.0,50.2,29.65,West,270,4.0,7.0,97,0.00,,,0.00,Weather View 32 v70,2013-04-19 08:41:00,
2013-04-19 04:46:00,51.0,50.2,29.65,NE,45,1.0,7.0,97,0.00,,,0.00,Weather View 32 v70,2013-04-19 08:46:00,
2013-04-19 04:51:00,51.0,50.2,29.65,NW,315,1.0,9.0,97,0.00,,,0.00,Weather View 32 v70,2013-04-19 08:51:00,
2013-04-19 04:56:00,51.0,50.2,29.65,NW,315,1.0,9.0,97,0.00,,,0.00,Weather View 32 v70,2013-04-19 08:56:00,
2013-04-19 05:01:00,51.0,50.2,29.65,West,270,0.0,9.0,97,0.00,,,0.00,Weather View 32 v70,2013-04-19 09:01:00,
2013-04-19 05:06:00,51.0,50.2,29.65,ENE,67,3.0,9.0,97,0.00,,,0.00,Weather View 32 v70,2013-04-19 09:06:00,
2013-04-19 05:11:00,51.0,50.2,29.64,West,270,4.0,9.0,97,0.00,,,0.00,Weather View 32 v70,2013-04-19 09:11:00,
2013-04-19 05:16:00,51.0,50.2,29.64,NW,315,0.0,9.0,97,0.00,,,0.00,Weather View 32 v70,2013-04-19 09:16:00,
2013-04-19 05:21:00,51.0,50.2,29.63,NW,315,1.0,9.0,97,0.00,,,0.00,Weather View 32 v70,2013-04-19 09:21:00,
2013-04-19 05:26:00,51.0,50.2,29.63,ESE,112,4.0,9.0,97,0.00,,,0.00,Weather View 32 v70,2013-04-19 09:26:00,
2013-04-19 05:31:00,51.0,50.2,29.63,NW,315,3.0,9.0,97,0.00,,,0.00,Weather View 32 v70,2013-04-19 09:31:00,
2013-04-19 05:36:00,51.0,50.2,29.63,SE,135,0.0,9.0,97,0.00,,,0.00,Weather View 32 v70,2013-04-19 09:36:00,
2013-04-19 05:41:00,51.0,50.2,29.62,SE,135,6.0,9.0,97,0.00,,,0.00,Weather View 32 v70,2013-04-19 09:41:00,
2013-04-19 05:46:00,51.0,50.2,29.62,South,180,5.0,9.0,97,0.00,,,0.00,Weather View 32 v70,2013-04-19 09:46:00,
2013-04-19 05:51:00,52.0,51.2,29.60,SSE,157,1.0,8.0,97,0.00,,,0.00,Weather View 32 v70,2013-04-19 09:51:00,
2013-04-19 05:56:00,52.0,51.2,29.60,SE,135,7.0,8.0,97,0.00,,,0.00,Weather View 32 v70,2013-04-19 09:56:00,
2013-04-19 06:01:00,52.0,51.2,29.60,East,90,1.0,8.0,97,0.00,,,0.00,Weather View 32 v70,2013-04-19 10:01:00,
2013-04-19 06:06:00,52.0,51.2,29.60,NE,45,3.0,8.0,97,0.00,,,0.00,Weather View 32 v70,2013-04-19 10:06:00,
2013-04-19 06:11:00,52.0,51.2,29.61,NNE,22,2.0,8.0,97,0.00,,,0.00,Weather View 32 v70,2013-04-19 10:11:00,
2013-04-19 06:16:00,52.0,51.2,29.61,NE,45,2.0,9.0,97,0.00,,,0.00,Weather View 32 v70,2013-04-19 10:16:00,
2013-04-19 06:21:00,52.0,51.2,29.61,NNE,22,2.0,9.0,97,0.00,,,0.00,Weather View 32 v70,2013-04-19 10:21:00,
2013-04-19 06:26:00,52.0,51.2,29.61,West,270,5.0,10.0,97,0.00,,,0.00,Weather View 32 v70,2013-04-19 10:26:00,
2013-04-19 06:31:00,53.0,52.2,29.61,West,270,6.0,10.0,97,0.00,,,0.00,Weather View 32 v70,2013-04-19 10:31:00,
2013-04-19 06:36:00,53.0,52.2,29.61,West,270,3.0,10.0,97,0.00,,,0.00,Weather View 32 v70,2013-04-19 10:36:00,
2013-04-19 06:41:00,53.0,52.2,29.62,West,270,6.0,10.0,97,0.00,,,0.00,Weather View 32 v70,2013-04-19 10:41:00,
2013-04-19 06:46:00,53.0,52.2,29.62,WNW,292,5.0,10.0,97,0.00,,,0.00,Weather View 32 v70,2013-04-19 10:46:00,
2013-04-19 06:51:00,53.0,52.2,29.62,NW,315,5.0,10.0,97,0.00,,,0.00,Weather View 32 v70,2013-04-19 10:51:00,
2013-04-19 06:56:00,53.0,52.2,29.62,SSE,157,2.0,10.0,97,0.00,,,0.00,Weather View 32 v70,2013-04-19 10:56:00,
2013-04-19 07:01:00,53.0,52.2,29.62,North,360,3.0,10.0,97,0.00,,,0.00,Weather View 32 v70,2013-04-19 11:01:00,
2013-04-19 07:06:00,53.0,52.2,29.62,West,270,0.0,10.0,97,0.00,,,0.00,Weather View 32 v70,2013-04-19 11:06:00,
2013-04-19 07:11:00,54.0,53.2,29.61,ESE,112,3.0,10.0,97,0.00,,,0.00,Weather View 32 v70,2013-04-19 11:11:00,
2013-04-19 07:16:00,54.0,53.2,29.61,West,270,4.0,10.0,97,0.00,,,0.00,Weather View 32 v70,2013-04-19 11:16:00,
2013-04-19 07:21:00,54.0,53.2,29.62,NW,315,3.0,10.0,97,0.00,,,0.00,Weather View 32 v70,2013-04-19 11:21:00,
2013-04-19 07:26:00,54.0,53.2,29.62,West,270,7.0,9.0,97,0.00,,,0.00,Weather View 32 v70,2013-04-19 11:26:00,
2013-04-19 07:31:00,54.0,53.2,29.61,West,270,6.0,9.0,97,0.00,,,0.00,Weather View 32 v70,2013-04-19 11:31:00,
2013-04-19 07:36:00,54.0,53.2,29.61,West,270,6.0,9.0,97,0.00,,,0.00,Weather View 32 v70,2013-04-19 11:36:00,
2013-04-19 07:41:00,55.0,54.2,29.61,West,270,3.0,9.0,97,0.00,,,0.00,Weather View 32 v70,2013-04-19 11:41:00,
2013-04-19 07:46:00,55.0,54.2,29.61,West,270,6.0,9.0,97,0.00,,,0.00,Weather View 32 v70,2013-04-19 11:46:00,
2013-04-19 07:51:00,55.0,54.2,29.61,NW,315,5.0,11.0,97,0.00,,,0.00,Weather View 32 v70,2013-04-19 11:51:00,
2013-04-19 07:56:00,55.0,54.2,29.61,North,360,3.0,11.0,97,0.00,,,0.00,Weather View 32 v70,2013-04-19 11:56:00,
2013-04-19 08:01:00,56.0,55.2,29.60,NW,315,2.0,11.0,97,0.00,,,0.00,Weather View 32 v70,2013-04-19 12:01:00,
2013-04-19 08:06:00,56.0,55.2,29.60,ESE,112,1.0,11.0,97,0.00,,,0.00,Weather View 32 v70,2013-04-19 12:06:00,
2013-04-19 08:11:00,57.0,56.4,29.59,North,360,3.0,11.0,98,0.00,,,0.00,Weather View 32 v70,2013-04-19 12:11:00,
2013-04-19 08:16:00,57.0,56.4,29.59,NW,315,5.0,12.0,98,0.00,,,0.00,Weather View 32 v70,2013-04-19 12:16:00,
2013-04-19 08:21:00,58.0,57.4,29.58,NW,315,0.0,12.0,98,0.00,,,0.00,Weather View 32 v70,2013-04-19 12:21:00,
2013-04-19 08:26:00,58.0,57.2,29.58,NW,315,7.0,12.0,97,0.00,,,0.00,Weather View 32 v70,2013-04-19 12:26:00,
2013-04-19 08:31:00,59.0,57.3,29.57,NW,315,7.0,14.0,94,0.00,,,0.00,Weather View 32 v70,2013-04-19 12:31:00,
2013-04-19 08:36:00,59.0,57.0,29.57,West,270,6.0,14.0,93,0.00,,,0.00,Weather View 32 v70,2013-04-19 12:36:00,
2013-04-19 08:41:00,60.0,58.0,29.57,West,270,10.0,14.0,93,0.00,,,0.00,Weather View 32 v70,2013-04-19 12:41:00,
2013-04-19 08:46:00,60.0,57.4,29.57,NW,315,7.0,14.0,91,0.00,,,0.00,Weather View 32 v70,2013-04-19 12:46:00,
2013-04-19 08:51:00,60.0,57.0,29.57,East,90,3.0,14.0,90,0.00,,,0.00,Weather View 32 v70,2013-04-19 12:51:00,
2013-04-19 08:56:00,61.0,57.7,29.57,South,180,4.0,15.0,89,0.00,,,0.00,Weather View 32 v70,2013-04-19 12:56:00,
2013-04-19 09:01:00,61.0,57.7,29.57,WNW,292,10.0,15.0,89,0.00,,,0.00,Weather View 32 v70,2013-04-19 13:01:00,
2013-04-19 09:06:00,61.0,57.7,29.57,West,270,9.0,15.0,89,0.00,,,0.00,Weather View 32 v70,2013-04-19 13:06:00,
2013-04-19 09:11:00,61.0,57.4,29.57,West,270,10.0,15.0,88,0.00,,,0.00,Weather View 32 v70,2013-04-19 13:11:00,
2013-04-19 09:16:00,62.0,58.1,29.57,West,270,9.0,15.0,87,0.00,,,0.00,Weather View 32 v70,2013-04-19 13:16:00,
2013-04-19 09:21:00,62.0,57.8,29.56,NW,315,8.0,15.0,86,0.00,,,0.00,Weather View 32 v70,2013-04-19 13:21:00,
2013-04-19 09:26:00,62.0,57.8,29.56,West,270,6.0,15.0,86,0.00,,,0.00,Weather View 32 v70,2013-04-19 13:26:00,
2013-04-19 09:31:00,62.0,57.4,29.55,NW,315,7.0,15.0,85,0.00,,,0.00,Weather View 32 v70,2013-04-19 13:31:00,
2013-04-19 09:36:00,63.0,58.1,29.55,NE,45,7.0,18.0,84,0.00,,,0.00,Weather View 32 v70,2013-04-19 13:36:00,
2013-04-19 09:41:00,63.0,57.7,29.54,NW,315,8.0,18.0,83,0.00,,,0.00,Weather View 32 v70,2013-04-19 13:41:00,
2013-04-19 09:46:00,63.0,57.4,29.54,SSE,157,5.0,18.0,82,0.00,,,0.00,Weather View 32 v70,2013-04-19 13:46:00,
2013-04-19 09:51:00,64.0,58.0,29.53,NW,315,9.0,18.0,81,0.00,,,0.00,Weather View 32 v70,2013-04-19 13:51:00,
2013-04-19 09:56:00,64.0,57.7,29.53,West,270,7.0,18.0,80,0.00,,,0.00,Weather View 32 v70,2013-04-19 13:56:00,
2013-04-19 10:01:00,64.0,57.3,29.53,SW,225,7.0,18.0,79,0.00,,,0.00,Weather View 32 v70,2013-04-19 14:01:00,
2013-04-19 10:06:00,65.0,58.3,29.53,NW,315,9.0,18.0,79,0.00,,,0.00,Weather View 32 v70,2013-04-19 14:06:00,
2013-04-19 10:11:00,65.0,58.3,29.52,West,270,13.0,18.0,79,0.00,,,0.00,Weather View 32 v70,2013-04-19 14:11:00,
2013-04-19 10:16:00,65.0,58.3,29.52,North,360,13.0,20.0,79,0.00,,,0.00,Weather View 32 v70,2013-04-19 14:16:00,
2013-04-19 10:21:00,65.0,58.0,29.52,SW,225,8.0,20.0,78,0.00,,,0.00,Weather View 32 v70,2013-04-19 14:21:00,
2013-04-19 10:26:00,66.0,58.9,29.52,SE,135,11.0,20.0,78,0.00,,,0.00,Weather View 32 v70,2013-04-19 14:26:00,
2013-04-19 10:31:00,66.0,58.2,29.52,WNW,292,16.0,20.0,76,0.00,,,0.00,Weather View 32 v70,2013-04-19 14:31:00,
2013-04-19 10:36:00,66.0,57.4,29.52,West,270,7.0,20.0,74,0.00,,,0.00,Weather View 32 v70,2013-04-19 14:36:00,
2013-04-19 10:41:00,67.0,58.0,29.51,West,270,7.0,20.0,73,0.00,,,0.00,Weather View 32 v70,2013-04-19 14:41:00,
2013-04-19 10:46:00,67.0,58.0,29.51,SW,225,6.0,20.0,73,0.00,,,0.00,Weather View 32 v70,2013-04-19 14:46:00,
2013-04-19 10:51:00,67.0,57.3,29.51,NW,315,5.0,20.0,71,0.00,,,0.00,Weather View 32 v70,2013-04-19 14:51:00,
2013-04-19 10:56:00,67.0,57.3,29.51,West,270,10.0,20.0,71,0.00,,,0.00,Weather View 32 v70,2013-04-19 14:56:00,
2013-04-19 11:01:00,68.0,57.4,29.50,NW,315,7.0,20.0,69,0.00,,,0.00,Weather View 32 v70,2013-04-19 15:01:00,
2013-04-19 11:06:00,68.0,57.4,29.50,West,270,7.0,20.0,69,0.00,,,0.00,Weather View 32 v70,2013-04-19 15:06:00,
2013-04-19 11:11:00,68.0,57.8,29.50,West,270,7.0,23.0,70,0.00,,,0.00,Weather View 32 v70,2013-04-19 15:11:00,
2013-04-19 11:16:00,68.0,57.8,29.50,West,270,17.0,23.0,70,0.00,,,0.00,Weather View 32 v70,2013-04-19 15:16:00,
2013-04-19 11:21:00,68.0,57.8,29.49,West,270,13.0,23.0,70,0.00,,,0.00,Weather View 32 v70,2013-04-19 15:21:00,
2013-04-19 11:26:00,68.0,57.4,29.49,West,270,9.0,23.0,69,0.00,,,0.00,Weather View 32 v70,2013-04-19 15:26:00,
2013-04-19 11:31:00,68.0,57.0,29.49,West,270,12.0,24.0,68,0.00,,,0.00,Weather View 32 v70,2013-04-19 15:31:00,
2013-04-19 11:36:00,68.0,57.0,29.49,West,270,15.0,24.0,68,0.00,,,0.00,Weather View 32 v70,2013-04-19 15:36:00,
2013-04-19 11:41:00,69.0,57.6,29.48,WNW,292,7.0,24.0,67,0.00,,,0.00,Weather View 32 v70,2013-04-19 15:41:00,
2013-04-19 11:46:00,70.0,58.1,29.48,NW,315,13.0,24.0,66,0.00,,,0.00,Weather View 32 v70,2013-04-19 15:46:00,
2013-04-19 11:51:00,70.0,57.7,29.47,West,270,9.0,24.0,65,0.00,,,0.00,Weather View 32 v70,2013-04-19 15:51:00,
2013-04-19 11:56:00,70.0,56.8,29.47,West,270,13.0,24.0,63,0.00,,,0.00,Weather View 32 v70,2013-04-19 15:56:00,
2013-04-19 12:01:00,69.0,57.1,29.47,West,270,9.0,24.0,66,0.00,,,0.00,Weather View 32 v70,2013-04-19 16:01:00,
2013-04-19 12:06:00,69.0,57.1,29.47,West,270,7.0,24.0,66,0.00,,,0.00,Weather View 32 v70,2013-04-19 16:06:00,
2013-04-19 12:11:00,69.0,57.1,29.47,West,270,9.0,24.0,66,0.00,,,0.00,Weather View 32 v70,2013-04-19 16:11:00,
2013-04-19 12:16:00,70.0,57.7,29.47,West,270,7.0,24.0,65,0.00,,,0.00,Weather View 32 v70,2013-04-19 16:16:00,
2013-04-19 12:21:00,70.0,56.8,29.46,West,270,7.0,24.0,63,0.00,,,0.00,Weather View 32 v70,2013-04-19 16:21:00,
2013-04-19 12:26:00,70.0,57.2,29.46,West,270,10.0,24.0,64,0.00,,,0.00,Weather View 32 v70,2013-04-19 16:26:00,
2013-04-19 12:31:00,70.0,57.7,29.46,NW,315,9.0,24.0,65,0.00,,,0.00,Weather View 32 v70,2013-04-19 16:31:00,
2013-04-19 12:36:00,69.0,57.1,29.46,West,270,12.0,23.0,66,0.00,,,0.00,Weather View 32 v70,2013-04-19 16:36:00,
2013-04-19 12:41:00,69.0,57.1,29.45,NW,315,7.0,23.0,66,0.00,,,0.00,Weather View 32 v70,2013-04-19 16:41:00,
2013-04-19 12:46:00,70.0,57.2,29.45,NW,315,10.0,23.0,64,0.00,,,0.00,Weather View 32 v70,2013-04-19 16:46:00,
2013-04-19 12:51:00,70.0,57.7,29.45,West,270,7.0,23.0,65,0.00,,,0.00,Weather View 32 v70,2013-04-19 16:51:00,
2013-04-19 12:56:00,71.0,57.3,29.45,West,270,9.0,23.0,62,0.00,,,0.00,Weather View 32 v70,2013-04-19 16:56:00,
2013-04-19 13:01:00,71.0,57.7,29.43,West,270,7.0,23.0,63,0.00,,,0.00,Weather View 32 v70,2013-04-19 17:01:00,
2013-04-19 13:06:00,71.0,57.7,29.43,NW,315,10.0,23.0,63,0.00,,,0.00,Weather View 32 v70,2013-04-19 17:06:00,
2013-04-19 13:11:00,72.0,57.8,29.43,West,270,14.0,23.0,61,0.00,,,0.00,Weather View 32 v70,2013-04-19 17:11:00,
2013-04-19 13:16:00,72.0,57.3,29.43,NW,315,15.0,23.0,60,0.00,,,0.00,Weather View 32 v70,2013-04-19 17:16:00,
2013-04-19 13:21:00,71.0,57.3,29.44,WNW,292,10.0,23.0,62,0.00,,,0.00,Weather View 32 v70,2013-04-19 17:21:00,
2013-04-19 13:26:00,71.0,57.7,29.44,NE,45,9.0,23.0,63,0.00,,,0.00,Weather View 32 v70,2013-04-19 17:26:00,
2013-04-19 13:31:00,71.0,56.8,29.43,NE,45,7.0,23.0,61,0.00,,,0.00,Weather View 32 v70,2013-04-19 17:31:00,
2013-04-19 13:36:00,72.0,57.8,29.43,West,270,9.0,22.0,61,0.00,,,0.00,Weather View 32 v70,2013-04-19 17:36:00,
2013-04-19 13:41:00,72.0,57.8,29.41,South,180,6.0,22.0,61,0.00,,,0.00,Weather View 32 v70,2013-04-19 17:41:00,
2013-04-19 13:46:00,72.0,56.8,29.41,West,270,12.0,22.0,59,0.00,,,0.00,Weather View 32 v70,2013-04-19 17:46:00,
2013-04-19 13:51:00,72.0,57.3,29.41,West,270,16.0,27.0,60,0.00,,,0.00,Weather View 32 v70,2013-04-19 17:51:00,
2013-04-19 13:56:00,72.0,56.8,29.41,North,360,12.0,27.0,59,0.00,,,0.00,Weather View 32 v70,2013-04-19 17:56:00,
2013-04-19 14:01:00,72.0,57.3,29.40,West,270,15.0,27.0,60,0.00,,,0.00,Weather View 32 v70,2013-04-19 18:01:00,
2013-04-19 14:06:00,72.0,57.3,29.40,West,270,9.0,27.0,60,0.00,,,0.00,Weather View 32 v70,2013-04-19 18:06:00,
2013-04-19 14:11:00,72.0,56.8,29.40,NW,315,7.0,27.0,59,0.00,,,0.00,Weather View 32 v70,2013-04-19 18:11:00,
2013-04-19 14:16:00,72.0,56.8,29.40,WSW,247,13.0,27.0,59,0.00,,,0.00,Weather View 32 v70,2013-04-19 18:16:00,
2013-04-19 14:21:00,73.0,56.8,29.38,West,270,16.0,27.0,57,0.00,,,0.00,Weather View 32 v70,2013-04-19 18:21:00,
2013-04-19 14:26:00,74.0,57.3,29.38,North,360,6.0,27.0,56,0.00,,,0.00,Weather View 32 v70,2013-04-19 18:26:00,
2013-04-19 14:31:00,73.0,57.3,29.37,West,270,4.0,27.0,58,0.00,,,0.00,Weather View 32 v70,2013-04-19 18:31:00,
2013-04-19 14:36:00,73.0,56.8,29.37,West,270,6.0,27.0,57,0.00,,,0.00,Weather View 32 v70,2013-04-19 18:36:00,
2013-04-19 14:41:00,73.0,57.3,29.37,West,270,7.0,27.0,58,0.00,,,0.00,Weather View 32 v70,2013-04-19 18:41:00,
2013-04-19 14:46:00,73.0,57.8,29.37,WNW,292,10.0,27.0,59,0.00,,,0.00,Weather View 32 v70,2013-04-19 18:46:00,
2013-04-19 14:51:00,74.0,57.3,29.36,North,360,10.0,25.0,56,0.00,,,0.00,Weather View 32 v70,2013-04-19 18:51:00,
2013-04-19 14:56:00,73.0,57.3,29.36,NE,45,7.0,22.0,58,0.00,,,0.00,Weather View 32 v70,2013-04-19 18:56:00,
2013-04-19 15:01:00,73.0,57.3,29.36,North,360,7.0,22.0,58,0.00,,,0.00,Weather View 32 v70,2013-04-19 19:01:00,
2013-04-19 15:06:00,73.0,57.3,29.36,West,270,6.0,21.0,58,0.00,,,0.00,Weather View 32 v70,2013-04-19 19:06:00,
2013-04-19 15:11:00,73.0,57.8,29.36,West,270,8.0,21.0,59,0.00,,,0.00,Weather View 32 v70,2013-04-19 19:11:00,
2013-04-19 15:16:00,72.0,56.8,29.36,NW,315,9.0,21.0,59,0.00,,,0.00,Weather View 32 v70,2013-04-19 19:16:00,
2013-04-19 15:21:00,72.0,57.8,29.36,West,270,9.0,23.0,61,0.00,,,0.00,Weather View 32 v70,2013-04-19 19:21:00,
2013-04-19 15:26:00,72.0,57.8,29.36,NW,315,8.0,23.0,61,0.00,,,0.00,Weather View 32 v70,2013-04-19 19:26:00,
2013-04-19 15:31:00,71.0,57.3,29.36,NE,45,6.0,23.0,62,0.00,,,0.00,Weather View 32 v70,2013-04-19 19:31:00,
2013-04-19 15:36:00,71.0,57.7,29.36,NW,315,6.0,23.0,63,0.00,,,0.00,Weather View 32 v70,2013-04-19 19:36:00,
2013-04-19 15:41:00,71.0,57.7,29.35,West,270,9.0,23.0,63,0.00,,,0.00,Weather View 32 v70,2013-04-19 19:41:00,
2013-04-19 15:46:00,71.0,57.3,29.35,SW,225,11.0,23.0,62,0.00,,,0.00,Weather View 32 v70,2013-04-19 19:46:00,
2013-04-19 15:51:00,71.0,57.7,29.35,West,270,16.0,23.0,63,0.00,,,0.00,Weather View 32 v70,2013-04-19 19:51:00,
2013-04-19 15:56:00,71.0,57.7,29.35,NW,315,8.0,23.0,63,0.00,,,0.00,Weather View 32 v70,2013-04-19 19:56:00,
2013-04-19 16:01:00,71.0,57.7,29.35,West,270,8.0,23.0,63,0.00,,,0.00,Weather View 32 v70,2013-04-19 20:01:00,
2013-04-19 16:06:00,71.0,58.6,29.35,WSW,247,9.0,23.0,65,0.00,,,0.00,Weather View 32 v70,2013-04-19 20:06:00,
2013-04-19 16:11:00,70.0,58.9,29.35,West,270,13.0,24.0,68,0.00,,,0.00,Weather View 32 v70,2013-04-19 20:11:00,
2013-04-19 16:16:00,69.0,58.8,29.35,West,270,12.0,24.0,70,0.00,,,0.00,Weather View 32 v70,2013-04-19 20:16:00,
2013-04-19 16:21:00,69.0,59.6,29.36,West,270,19.0,24.0,72,0.00,,,0.00,Weather View 32 v70,2013-04-19 20:21:00,
2013-04-19 16:26:00,69.0,60.3,29.36,West,270,10.0,26.0,74,0.00,,,0.00,Weather View 32 v70,2013-04-19 20:26:00,
2013-04-19 16:31:00,69.0,60.3,29.35,West,270,12.0,26.0,74,0.00,,,0.00,Weather View 32 v70,2013-04-19 20:31:00,
2013-04-19 16:36:00,68.0,59.8,29.35,West,270,13.0,26.0,75,0.00,,,0.00,Weather View 32 v70,2013-04-19 20:36:00,
2013-04-19 16:41:00,68.0,60.1,29.35,NW,315,10.0,26.0,76,0.00,,,0.00,Weather View 32 v70,2013-04-19 20:41:00,
2013-04-19 16:46:00,68.0,60.1,29.35,West,270,6.0,26.0,76,0.00,,,0.00,Weather View 32 v70,2013-04-19 20:46:00,
2013-04-19 16:51:00,68.0,60.1,29.34,NW,315,6.0,26.0,76,0.00,,,0.00,Weather View 32 v70,2013-04-19 20:51:00,
2013-04-19 16:56:00,68.0,60.1,29.34,North,360,4.0,26.0,76,0.00,,,0.00,Weather View 32 v70,2013-04-19 20:56:00,
2013-04-19 17:01:00,68.0,60.5,29.34,NW,315,12.0,26.0,77,0.00,,,0.00,Weather View 32 v70,2013-04-19 21:01:00,
2013-04-19 17:06:00,68.0,60.9,29.34,NW,315,12.0,26.0,78,0.00,,,0.00,Weather View 32 v70,2013-04-19 21:06:00,
2013-04-19 17:11:00,68.0,61.2,29.34,West,270,10.0,26.0,79,0.00,,,0.00,Weather View 32 v70,2013-04-19 21:11:00,
2013-04-19 17:16:00,68.0,61.9,29.34,West,270,5.0,26.0,81,0.00,,,0.00,Weather View 32 v70,2013-04-19 21:16:00,
2013-04-19 17:21:00,67.0,61.3,29.34,North,360,6.0,26.0,82,0.00,,,0.00,Weather View 32 v70,2013-04-19 21:21:00,
2013-04-19 17:26:00,67.0,61.3,29.34,West,270,8.0,20.0,82,0.00,,,0.00,Weather View 32 v70,2013-04-19 21:26:00,
2013-04-19 17:31:00,67.0,61.6,29.33,NW,315,12.0,20.0,83,0.00,,,0.00,Weather View 32 v70,2013-04-19 21:31:00,
2013-04-19 17:36:00,67.0,61.6,29.33,West,270,8.0,20.0,83,0.00,,,0.00,Weather View 32 v70,2013-04-19 21:36:00,
2013-04-19 17:41:00,67.0,61.3,29.33,NE,45,3.0,20.0,82,0.00,,,0.00,Weather View 32 v70,2013-04-19 21:41:00,
2013-04-19 17:46:00,67.0,61.3,29.33,NW,315,12.0,20.0,82,0.00,,,0.00,Weather View 32 v70,2013-04-19 21:46:00,
2013-04-19 17:51:00,67.0,61.3,29.32,East,90,10.0,20.0,82,0.00,,,0.00,Weather View 32 v70,2013-04-19 21:51:00,
2013-04-19 17:56:00,67.0,61.6,29.32,North,360,3.0,20.0,83,0.00,,,0.00,Weather View 32 v70,2013-04-19 21:56:00,
2013-04-19 18:01:00,67.0,61.6,29.31,West,270,6.0,20.0,83,0.00,,,0.00,Weather View 32 v70,2013-04-19 22:01:00,
2013-04-19 18:06:00,67.0,62.0,29.31,NW,315,11.0,20.0,84,0.00,,,0.00,Weather View 32 v70,2013-04-19 22:06:00,
2013-04-19 18:11:00,67.0,62.0,29.30,NW,315,6.0,20.0,84,0.00,,,0.00,Weather View 32 v70,2013-04-19 22:11:00,
2013-04-19 18:16:00,67.0,62.0,29.30,NW,315,9.0,19.0,84,0.00,,,0.00,Weather View 32 v70,2013-04-19 22:16:00,
2013-04-19 18:21:00,67.0,62.3,29.30,WNW,292,6.0,19.0,85,0.00,,,0.00,Weather View 32 v70,2013-04-19 22:21:00,
2013-04-19 18:26:00,67.0,62.3,29.30,North,360,9.0,19.0,85,0.00,,,0.00,Weather View 32 v70,2013-04-19 22:26:00,
2013-04-19 18:31:00,67.0,62.7,29.30,SE,135,2.0,19.0,86,0.00,,,0.00,Weather View 32 v70,2013-04-19 22:31:00,
2013-04-19 18:36:00,67.0,63.0,29.30,NW,315,10.0,19.0,87,0.00,,,0.00,Weather View 32 v70,2013-04-19 22:36:00,
2013-04-19 18:41:00,66.0,62.0,29.29,West,270,7.0,19.0,87,0.00,,,0.00,Weather View 32 v70,2013-04-19 22:41:00,
2013-04-19 18:46:00,66.0,62.3,29.29,West,270,8.0,19.0,88,0.00,,,0.00,Weather View 32 v70,2013-04-19 22:46:00,
2013-04-19 18:51:00,66.0,62.3,29.30,SE,135,1.0,19.0,88,0.00,,,0.00,Weather View 32 v70,2013-04-19 22:51:00,
2013-04-19 18:56:00,66.0,62.3,29.30,WSW,247,1.0,19.0,88,0.00,,,0.00,Weather View 32 v70,2013-04-19 22:56:00,
2013-04-19 19:01:00,66.0,62.3,29.30,NE,45,6.0,19.0,88,0.00,,,0.00,Weather View 32 v70,2013-04-19 23:01:00,
2013-04-19 19:06:00,66.0,62.0,29.30,NW,315,6.0,18.0,87,0.00,,,0.00,Weather View 32 v70,2013-04-19 23:06:00,
2013-04-19 19:11:00,66.0,62.0,29.28,West,270,7.0,17.0,87,0.00,,,0.00,Weather View 32 v70,2013-04-19 23:11:00,
2013-04-19 19:16:00,66.0,62.0,29.28,East,90,6.0,19.0,87,0.00,,,0.00,Weather View 32 v70,2013-04-19 23:16:00,
2013-04-19 19:21:00,66.0,62.0,29.29,West,270,9.0,19.0,87,0.00,,,0.00,Weather View 32 v70,2013-04-19 23:21:00,
2013-04-19 19:26:00,66.0,62.0,29.29,West,270,4.0,20.0,87,0.00,,,0.00,Weather View 32 v70,2013-04-19 23:26:00,
2013-04-19 19:31:00,66.0,62.0,29.29,North,360,3.0,20.0,87,0.00,,,0.00,Weather View 32 v70,2013-04-19 23:31:00,
2013-04-19 19:36:00,66.0,62.0,29.29,WSW,247,9.0,20.0,87,0.00,,,0.00,Weather View 32 v70,2013-04-19 23:36:00,
2013-04-19 19:41:00,66.0,62.0,29.29,North,360,6.0,20.0,87,0.00,,,0.00,Weather View 32 v70,2013-04-19 23:41:00,
2013-04-19 19:46:00,66.0,62.3,29.29,West,270,6.0,20.0,88,0.00,,,0.00,Weather View 32 v70,2013-04-19 23:46:00,
2013-04-19 19:51:00,66.0,62.3,29.29,NE,45,6.0,20.0,88,0.00,,,0.00,Weather View 32 v70,2013-04-19 23:51:00,
2013-04-19 19:56:00,66.0,62.0,29.29,West,270,9.0,20.0,87,0.00,,,0.00,Weather View 32 v70,2013-04-19 23:56:00,
2013-04-19 20:01:00,66.0,62.0,29.29,West,270,6.0,20.0,87,0.00,,,0.00,Weather View 32 v70,2013-04-20 00:01:00,
2013-04-19 20:06:00,65.0,61.3,29.29,North,360,9.0,20.0,88,0.00,,,0.00,Weather View 32 v70,2013-04-20 00:06:00,
2013-04-19 20:11:00,65.0,61.3,29.29,NW,315,8.0,20.0,88,0.00,,,0.00,Weather View 32 v70,2013-04-20 00:11:00,
2013-04-19 20:16:00,65.0,61.3,29.29,North,360,8.0,20.0,88,0.00,,,0.00,Weather View 32 v70,2013-04-20 00:16:00,
2013-04-19 20:21:00,65.0,61.0,29.29,West,270,18.0,20.0,87,0.00,,,0.00,Weather View 32 v70,2013-04-20 00:21:00,
2013-04-19 20:26:00,65.0,61.0,29.29,West,270,12.0,20.0,87,0.00,,,0.00,Weather View 32 v70,2013-04-20 00:26:00,
2013-04-19 20:31:00,65.0,61.0,29.29,NW,315,13.0,20.0,87,0.03,,,0.03,Weather View 32 v70,2013-04-20 00:31:00,
2013-04-19 20:36:00,65.0,61.0,29.29,North,360,7.0,20.0,87,0.03,,,0.03,Weather View 32 v70,2013-04-20 00:36:00,
2013-04-19 20:41:00,65.0,61.3,29.30,NW,315,8.0,20.0,88,0.03,,,0.03,Weather View 32 v70,2013-04-20 00:41:00,
2013-04-19 20:46:00,65.0,61.3,29.30,NW,315,15.0,24.0,88,0.03,,,0.03,Weather View 32 v70,2013-04-20 00:46:00,
2013-04-19 20:51:00,65.0,61.3,29.30,NW,315,9.0,24.0,88,0.03,,,0.03,Weather View 32 v70,2013-04-20 00:51:00,
2013-04-19 20:56:00,65.0,61.3,29.30,NW,315,6.0,24.0,88,0.03,,,0.03,Weather View 32 v70,2013-04-20 00:56:00,
2013-04-19 21:01:00,65.0,61.7,29.29,NW,315,7.0,24.0,89,0.03,,,0.03,Weather View 32 v70,2013-04-20 01:01:00,
2013-04-19 21:06:00,65.0,61.7,29.29,WNW,292,12.0,24.0,89,0.03,,,0.03,Weather View 32 v70,2013-04-20 01:06:00,
2013-04-19 21:11:00,65.0,61.7,29.28,NW,315,6.0,24.0,89,0.03,,,0.03,Weather View 32 v70,2013-04-20 01:11:00,
2013-04-19 21:16:00,65.0,62.0,29.28,West,270,9.0,24.0,90,0.03,,,0.03,Weather View 32 v70,2013-04-20 01:16:00,
2013-04-19 21:21:00,65.0,62.0,29.27,WNW,292,7.0,24.0,90,0.03,,,0.03,Weather View 32 v70,2013-04-20 01:21:00,
2013-04-19 21:26:00,65.0,62.0,29.27,West,270,9.0,24.0,90,0.03,,,0.03,Weather View 32 v70,2013-04-20 01:26:00,
2013-04-19 21:31:00,65.0,62.0,29.27,West,270,10.0,24.0,90,0.00,,,0.03,Weather View 32 v70,2013-04-20 01:31:00,
2013-04-19 21:36:00,65.0,62.0,29.27,West,270,10.0,24.0,90,0.00,,,0.03,Weather View 32 v70,2013-04-20 01:36:00,
2013-04-19 21:41:00,65.0,62.0,29.27,West,270,11.0,24.0,90,0.00,,,0.03,Weather View 32 v70,2013-04-20 01:41:00,
2013-04-19 21:46:00,65.0,62.0,29.27,NE,45,8.0,23.0,90,0.00,,,0.03,Weather View 32 v70,2013-04-20 01:46:00,
2013-04-19 21:51:00,65.0,62.0,29.27,NW,315,7.0,23.0,90,0.00,,,0.03,Weather View 32 v70,2013-04-20 01:51:00,
2013-04-19 21:56:00,65.0,62.3,29.27,NE,45,7.0,23.0,91,0.00,,,0.03,Weather View 32 v70,2013-04-20 01:56:00,
2013-04-19 22:01:00,65.0,62.3,29.27,West,270,9.0,23.0,91,0.00,,,0.03,Weather View 32 v70,2013-04-20 02:01:00,
2013-04-19 22:06:00,65.0,62.3,29.27,ESE,112,8.0,23.0,91,0.00,,,0.03,Weather View 32 v70,2013-04-20 02:06:00,
2013-04-19 22:11:00,64.0,61.3,29.26,West,270,10.0,23.0,91,0.00,,,0.03,Weather View 32 v70,2013-04-20 02:11:00,
2013-04-19 22:16:00,64.0,61.3,29.26,West,270,10.0,22.0,91,0.00,,,0.03,Weather View 32 v70,2013-04-20 02:16:00,
2013-04-19 22:21:00,64.0,61.3,29.26,West,270,9.0,22.0,91,0.00,,,0.03,Weather View 32 v70,2013-04-20 02:21:00,
2013-04-19 22:26:00,64.0,61.3,29.26,NW,315,7.0,22.0,91,0.00,,,0.03,Weather View 32 v70,2013-04-20 02:26:00,
2013-04-19 22:31:00,65.0,62.6,29.26,West,270,12.0,22.0,92,0.00,,,0.03,Weather View 32 v70,2013-04-20 02:31:00,
2013-04-19 22:36:00,65.0,62.6,29.26,NW,315,10.0,22.0,92,0.00,,,0.03,Weather View 32 v70,2013-04-20 02:36:00,
2013-04-19 22:41:00,65.0,62.6,29.25,West,270,9.0,22.0,92,0.00,,,0.03,Weather View 32 v70,2013-04-20 02:41:00,
2013-04-19 22:46:00,65.0,62.6,29.25,West,270,12.0,22.0,92,0.00,,,0.03,Weather View 32 v70,2013-04-20 02:46:00,
2013-04-19 22:51:00,65.0,62.6,29.25,East,90,4.0,22.0,92,0.00,,,0.03,Weather View 32 v70,2013-04-20 02:51:00,
2013-04-19 22:56:00,65.0,62.3,29.25,West,270,7.0,22.0,91,0.00,,,0.03,Weather View 32 v70,2013-04-20 02:56:00,
2013-04-19 23:01:00,65.0,62.3,29.25,West,270,12.0,22.0,91,0.00,,,0.03,Weather View 32 v70,2013-04-20 03:01:00,
2013-04-19 23:06:00,65.0,62.3,29.25,NW,315,9.0,21.0,91,0.00,,,0.03,Weather View 32 v70,2013-04-20 03:06:00,
2013-04-19 23:11:00,65.0,62.3,29.24,WNW,292,9.0,21.0,91,0.00,,,0.03,Weather View 32 v70,2013-04-20 03:11:00,
2013-04-19 23:16:00,65.0,62.3,29.24,NW,315,9.0,21.0,91,0.00,,,0.03,Weather View 32 v70,2013-04-20 03:16:00,
2013-04-19 23:21:00,65.0,62.0,29.24,West,270,10.0,21.0,90,0.00,,,0.03,Weather View 32 v70,2013-04-20 03:21:00,
2013-04-19 23:26:00,65.0,62.0,29.24,NW,315,10.0,20.0,90,0.00,,,0.03,Weather View 32 v70,2013-04-20 03:26:00,
2013-04-19 23:31:00,66.0,63.0,29.23,WSW,247,14.0,20.0,90,0.00,,,0.03,Weather View 32 v70,2013-04-20 03:31:00,
2013-04-19 23:36:00,66.0,63.0,29.23,NW,315,8.0,20.0,90,0.00,,,0.03,Weather View 32 v70,2013-04-20 03:36:00,
2013-04-19 23:41:00,66.0,63.0,29.22,North,360,7.0,20.0,90,0.00,,,0.03,Weather View 32 v70,2013-04-20 03:41:00,
2013-04-19 23:46:00,66.0,63.0,29.22,North,360,7.0,20.0,90,0.00,,,0.03,Weather View 32 v70,2013-04-20 03:46:00,
2013-04-19 23:51:00,66.0,62.7,29.21,West,270,10.0,20.0,89,0.00,,,0.03,Weather View 32 v70,2013-04-20 03:51:00,
2013-04-19 23:56:00,66.0,62.7,29.21,WSW,247,12.0,20.0,89,0.00,,,0.03,Weather View 32 v70,2013-04-20 03:56:00,